Retour au catalogue

MAQSAT H

ActifScienceHEO
NORAD 25023·PAYLOAD·🇪🇺 EU

Lancé Oct 30, 1997 depuis Guiana Space Centre

Loading…

Prochains Passages (prochaines 24 heures)

TLE

FraisSource: Space-Track

Époque: Sep 14, 2026, 22:17 UTC

1 25023U 97066A   26257.92893411  .00000243  00000-0  19954-2 0  9998
2 25023   7.8237 285.3364 6505194 260.4207  35.1917  3.10991676326709

Suivez MAQSAT H en temps réel avec AllMySat

Download on the App Store